Regional Weather Roundup
Issued by NWS

Home | Current Version | Previous Version | Text Only | Print | Product List | Glossary On
Versions: 1 2 3 4 5 6 7 8 9 10 11 12 13 14 15 16 17 18 19 20 21 22 23 24 25 26 27 28 29 30 31 32 33 34 35 36 37 38 39 40 41 42 43 44 45 46 47 48 49 50
742
ASUS44 KMEG 261210
RWRTN
TENNESSEE HOURLY STATE WEATHER ROUNDUP
NATIONAL WEATHER SERVICE MEMPHIS TN
700 AM CDT SUN MAR 26 2017

TNZ002-004-019-021-049-052-054-088>092-261300-
WEST TENNESSEE

CITY           SKY/WX    TMP DP  RH WIND       PRES   REMARKS
MEMPHIS INTL   CLOUDY    59  58  96 SW6       29.95R
NWS MEMPHIS      N/A     59 N/A N/A MISG        N/A
JACKSON        CLOUDY    60  58  92 S5        29.95R
DYERSBURG      CLOUDY    56  55  97 CALM      29.95R
SOMERVILLE     CLOUDY    61  57  88 S8        29.94R
BOLIVAR        CLOUDY    61  57  88 S8        29.95R
PARIS          CLOUDY    55  55 100 S6        29.94S
HUNTINGDON     CLOUDY    59  57  94 S7        29.94R
SAVANNAH       CLOUDY    59  57  94 S7        29.97R FOG
$$

TNZ008-025-027-028-033-062-065-066-261300-
NORTH MIDDLE TENNESSEE

CITY           SKY/WX    TMP DP  RH WIND       PRES   REMARKS
NASHVILLE      CLOUDY    58  56  93 S8        29.98R
PORTLAND       CLOUDY    57  55  94 S12       29.98R
CLARKSVILLE    CLOUDY    59  54  83 S8        29.96R
SMYRNA         LGT RAIN  58  56  93 S5        30.00R
COOKEVILLE     CLOUDY    59  55  88 S6        29.99S
GALLATIN       CLOUDY    59  55  88 S6        30.01R
CROSSVILLE     CLOUDY    56  53  90 S8        30.04R
$$

TNZ061-075-076-078-094-096-097-261300-
SOUTH MIDDLE TENNESSEE

CITY           SKY/WX    TMP DP  RH WIND       PRES   REMARKS
FAYETTEVILLE   CLOUDY    59  57  94 S6        30.01R
TULLAHOMA      CLOUDY    57  55  94 S8        30.01S
WINCHESTER     CLOUDY    57  55  94 CALM      30.02S
MCMINNVILLE    CLOUDY    59  55  88 S7        30.01R
COLUMBIA       MOCLDY   N/A N/A N/A S8        29.97R
SHELBYVILLE    CLOUDY   N/A N/A N/A MISG      30.01R
$$

TNZ017-018-042-046-047-261300-
NORTHEAST TENNESSEE

CITY           SKY/WX    TMP DP  RH WIND       PRES   REMARKS
TRI CITIES     LGT RAIN  61  50  67 CALM      30.10R
ELIZABETHTON   CLOUDY    59  50  72 CALM      30.10S
$$

TNZ012-013-036-069-073-074-261300-
CENTRAL EAST TENNESSEE

CITY           SKY/WX    TMP DP  RH WIND       PRES   REMARKS
KNOXVILLE      MOCLDY    58  56  93 CALM      30.07R
OAK RIDGE      CLOUDY    58  56  93 CALM      30.08R
DOWNTOWN KNOXV   N/A    N/A N/A N/A CALM      30.08R
GATLINBURG     PTCLDY    55  55 100 VRB3      30.06S
MORRISTOWN     MOCLDY    55  55 100 CALM      30.08R
JACKSBORO      MOCLDY    57  55  94 CALM      30.08S
$$

TNZ083-085-099-261300-
SOUTHEAST TENNESSEE

CITY           SKY/WX    TMP DP  RH WIND       PRES   REMARKS
CHATTANOOGA    CLOUDY    60  57  89 S6        30.06R
$$

SKY/WX REPORTED AS FAIR MEANS FEW OR NO CLOUDS BELOW
12 THOUSAND FEET.





USA.gov is the U.S. government's official web portal to all federal, state and local government web resources and services.